GLO9223 SBSG-SBSV

Flight info

Callsign GLO9223
Flight time 1h 15m
Altitude 38000
Route SIKEL UZ21 IREKI UZ30 ILPIX
Aircraft B738/M-SDFGIKLORWXY/LB1

Departure

Time 2026-05-09 00:49
Airport Rio Grande do Norte/São Gonçalo do Amarante–Governador Aluízio Alves International Airport (SBSG)

Arrival

Time 2026-05-09 02:04
Airport Deputado Luiz Eduardo Magalhães International Airport (SBSV)
Time Latitude Longitude Altitude Speed Heading
2026-05-09 00:21 -5.76438 -35.37352 291 ft 0 kts 10°
2026-05-09 00:41 -5.76446 -35.37353 291 ft 2 kts
2026-05-09 00:41 -5.76461 -35.37353 291 ft 2 kts
2026-05-09 00:41 -5.76476 -35.37355 291 ft 2 kts
2026-05-09 00:42 -5.76491 -35.37355 291 ft 2 kts
2026-05-09 00:42 -5.76504 -35.37356 291 ft 1 kts 17°
2026-05-09 00:42 -5.76510 -35.37362 291 ft 1 kts 75°
2026-05-09 00:42 -5.76510 -35.37368 291 ft 1 kts 108°
2026-05-09 00:43 -5.76509 -35.37373 291 ft 0 kts 101°
2026-05-09 00:44 -5.76512 -35.37351 291 ft 7 kts 98°
2026-05-09 00:44 -5.76522 -35.37287 291 ft 11 kts 103°
2026-05-09 00:45 -5.76591 -35.37245 291 ft 13 kts 190°
2026-05-09 00:45 -5.76677 -35.37262 291 ft 11 kts 201°
2026-05-09 00:45 -5.76701 -35.37329 291 ft 12 kts 278°
2026-05-09 00:45 -5.76684 -35.37433 291 ft 17 kts 278°
2026-05-09 00:46 -5.76661 -35.37570 291 ft 22 kts 279°
2026-05-09 00:46 -5.76633 -35.37738 291 ft 25 kts 279°
2026-05-09 00:46 -5.76613 -35.37863 291 ft 13 kts 279°
2026-05-09 00:46 -5.76622 -35.37946 291 ft 12 kts 233°
2026-05-09 00:47 -5.76717 -35.37975 291 ft 15 kts 181°
2026-05-09 00:47 -5.76774 -35.37956 291 ft 7 kts 112°
2026-05-09 00:47 -5.76776 -35.37949 291 ft 0 kts 96°
2026-05-09 00:47 -5.76776 -35.37948 291 ft 1 kts 96°
2026-05-09 00:48 -5.76811 -35.37726 291 ft 66 kts 99°
2026-05-09 00:48 -5.76920 -35.37056 291 ft 127 kts 99°
2026-05-09 00:48 -5.77091 -35.35993 292 ft 177 kts 99°
2026-05-09 00:48 -5.77270 -35.34736 842 ft 181 kts 99°
2026-05-09 00:49 -5.77436 -35.33542 1726 ft 172 kts 102°
2026-05-09 00:49 -5.77672 -35.32369 2289 ft 178 kts 103°
2026-05-09 00:49 -5.78192 -35.31220 2705 ft 191 kts 134°
2026-05-09 00:49 -5.79389 -35.30532 3161 ft 207 kts 155°
2026-05-09 00:50 -5.80783 -35.29974 3601 ft 221 kts 153°
2026-05-09 00:50 -5.82234 -35.29282 4027 ft 237 kts 150°
2026-05-09 00:50 -5.83741 -35.28507 4445 ft 253 kts 150°
2026-05-09 00:50 -5.85358 -35.27669 4864 ft 269 kts 150°
2026-05-09 00:51 -5.87098 -35.26776 5258 ft 285 kts 151°
2026-05-09 00:51 -5.88911 -35.25864 5666 ft 301 kts 153°
2026-05-09 00:51 -5.90953 -35.25179 6008 ft 321 kts 168°
2026-05-09 00:51 -5.93299 -35.25282 6345 ft 342 kts 189°
2026-05-09 00:52 -5.95670 -35.25956 6751 ft 356 kts 196°
2026-05-09 00:52 -5.98007 -35.26779 7295 ft 363 kts 197°
2026-05-09 00:52 -6.00408 -35.27623 7879 ft 367 kts 197°
2026-05-09 00:52 -6.02829 -35.28439 8462 ft 371 kts 196°
2026-05-09 00:53 -6.05341 -35.29227 9026 ft 374 kts 193°
2026-05-09 00:53 -6.07883 -35.29731 9567 ft 376 kts 185°
2026-05-09 00:53 -6.10511 -35.29998 10123 ft 379 kts 182°
2026-05-09 00:53 -6.13116 -35.30180 10658 ft 382 kts 181°
2026-05-09 00:54 -6.15810 -35.30374 11242 ft 385 kts 182°
2026-05-09 00:54 -6.18515 -35.30606 11788 ft 389 kts 183°
2026-05-09 00:54 -6.21222 -35.30874 12330 ft 393 kts 184°
2026-05-09 00:54 -6.23984 -35.31173 12871 ft 397 kts 184°
2026-05-09 00:55 -6.26780 -35.31489 13436 ft 401 kts 185°
2026-05-09 00:55 -6.29584 -35.31811 13990 ft 405 kts 185°
2026-05-09 00:55 -6.32370 -35.32132 14535 ft 408 kts 185°
2026-05-09 00:55 -6.35208 -35.32459 15122 ft 411 kts 185°
2026-05-09 00:56 -6.38100 -35.32791 15658 ft 415 kts 185°
2026-05-09 00:56 -6.40992 -35.33122 16200 ft 418 kts 186°
2026-05-09 00:56 -6.43886 -35.33453 16734 ft 421 kts 186°
2026-05-09 00:56 -6.46849 -35.33791 17263 ft 424 kts 186°
2026-05-09 00:57 -6.49793 -35.34127 17771 ft 427 kts 186°
2026-05-09 00:57 -6.52754 -35.34465 18207 ft 431 kts 186°
2026-05-09 00:57 -6.55768 -35.34810 18669 ft 435 kts 186°
2026-05-09 00:57 -6.58795 -35.35155 19091 ft 439 kts 186°
2026-05-09 00:58 -6.61867 -35.35505 19511 ft 443 kts 186°
2026-05-09 00:58 -6.64949 -35.35857 19950 ft 446 kts 186°
2026-05-09 00:58 -6.68076 -35.36213 20347 ft 450 kts 186°
2026-05-09 00:58 -6.71232 -35.36573 20763 ft 453 kts 186°
2026-05-09 00:59 -6.74407 -35.36935 21169 ft 456 kts 186°
2026-05-09 00:59 -6.77646 -35.37305 21583 ft 459 kts 186°
2026-05-09 00:59 -6.80882 -35.37674 21962 ft 463 kts 186°
2026-05-09 00:59 -6.84132 -35.38045 22343 ft 466 kts 186°
2026-05-09 01:00 -6.87380 -35.38415 22735 ft 468 kts 186°
2026-05-09 01:00 -6.90674 -35.38792 23144 ft 471 kts 186°
2026-05-09 01:00 -6.93960 -35.39167 23504 ft 474 kts 186°
2026-05-09 01:00 -6.97311 -35.39552 23869 ft 477 kts 187°
2026-05-09 01:01 -7.00640 -35.39944 24285 ft 479 kts 187°
2026-05-09 01:01 -7.03961 -35.40341 24662 ft 481 kts 187°
2026-05-09 01:01 -7.07328 -35.40747 25024 ft 484 kts 187°
2026-05-09 01:01 -7.10704 -35.41155 25348 ft 487 kts 188°
2026-05-09 01:02 -7.14084 -35.41563 25742 ft 488 kts 188°
2026-05-09 01:02 -7.17459 -35.41970 26285 ft 486 kts 188°
2026-05-09 01:02 -7.20797 -35.42372 26803 ft 484 kts 188°
2026-05-09 01:02 -7.24164 -35.42776 27291 ft 482 kts 188°
2026-05-09 01:03 -7.27491 -35.43176 27740 ft 482 kts 188°
2026-05-09 01:03 -7.30848 -35.43579 28207 ft 480 kts 189°
2026-05-09 01:03 -7.34190 -35.43979 28677 ft 479 kts 189°
2026-05-09 01:03 -7.37501 -35.44376 29166 ft 478 kts 189°
2026-05-09 01:04 -7.40834 -35.44776 29606 ft 478 kts 189°
2026-05-09 01:04 -7.44176 -35.45179 30064 ft 477 kts 189°
2026-05-09 01:04 -7.47478 -35.45578 30523 ft 476 kts 189°
2026-05-09 01:04 -7.50789 -35.45977 31002 ft 474 kts 189°
2026-05-09 01:05 -7.54138 -35.46377 31604 ft 469 kts 189°
2026-05-09 01:05 -7.57420 -35.46770 31889 ft 472 kts 189°
2026-05-09 01:05 -7.63898 -35.48135 32251 ft 476 kts 200°
2026-05-09 01:06 -7.66985 -35.49307 32561 ft 475 kts 206°
2026-05-09 01:06 -7.69952 -35.50810 32973 ft 471 kts 213°
2026-05-09 01:06 -7.72663 -35.52570 33505 ft 465 kts 219°
2026-05-09 01:06 -7.75236 -35.54571 34078 ft 459 kts 222°
2026-05-09 01:07 -7.77672 -35.56602 34572 ft 456 kts 223°
2026-05-09 01:07 -7.80131 -35.58672 35065 ft 453 kts 223°
2026-05-09 01:07 -7.82581 -35.60699 35508 ft 451 kts 222°
2026-05-09 01:07 -7.85047 -35.62689 35923 ft 449 kts 221°
2026-05-09 01:08 -7.87571 -35.64675 36253 ft 449 kts 220°
2026-05-09 01:08 -7.90089 -35.66616 36552 ft 449 kts 220°
2026-05-09 01:08 -7.92667 -35.68572 36878 ft 449 kts 220°
2026-05-09 01:08 -7.95207 -35.70477 37291 ft 446 kts 219°
2026-05-09 01:09 -7.97767 -35.72381 37674 ft 444 kts 219°
2026-05-09 01:09 -8.00299 -35.74255 37996 ft 443 kts 219°
2026-05-09 01:09 -8.02824 -35.76120 38052 ft 445 kts 219°
2026-05-09 01:10 -8.07868 -35.79841 38053 ft 452 kts 219°
2026-05-09 01:10 -8.13022 -35.83638 38064 ft 458 kts 219°
2026-05-09 01:11 -8.18170 -35.87428 38068 ft 460 kts 219°
2026-05-09 01:11 -8.23356 -35.91246 38076 ft 459 kts 219°
2026-05-09 01:12 -8.28537 -35.95065 38077 ft 460 kts 219°
2026-05-09 01:12 -8.33792 -35.98940 38076 ft 459 kts 219°
2026-05-09 01:13 -8.38958 -36.02750 38075 ft 457 kts 219°
2026-05-09 01:13 -8.44100 -36.06543 38073 ft 456 kts 219°
2026-05-09 01:14 -8.49257 -36.10348 38073 ft 456 kts 219°
2026-05-09 01:14 -8.54430 -36.14168 38077 ft 457 kts 219°
2026-05-09 01:15 -8.59597 -36.17984 38086 ft 458 kts 219°
2026-05-09 01:15 -8.64747 -36.21791 38096 ft 457 kts 219°
2026-05-09 01:16 -8.69902 -36.25601 38105 ft 456 kts 219°
2026-05-09 01:16 -8.75036 -36.29397 38112 ft 456 kts 219°
2026-05-09 01:17 -8.82794 -36.35136 38104 ft 455 kts 219°
2026-05-09 01:17 -8.87955 -36.38955 38100 ft 456 kts 219°
2026-05-09 01:18 -8.93107 -36.42769 38098 ft 456 kts 219°
2026-05-09 01:18 -8.98273 -36.46592 38097 ft 456 kts 219°
2026-05-09 01:19 -9.03392 -36.50382 38098 ft 456 kts 219°
2026-05-09 01:19 -9.08535 -36.54192 38092 ft 455 kts 219°
2026-05-09 01:20 -9.13633 -36.57972 38091 ft 454 kts 219°
2026-05-09 01:20 -9.18755 -36.61771 38090 ft 454 kts 219°
2026-05-09 01:21 -9.23874 -36.65571 38092 ft 455 kts 219°
2026-05-09 01:21 -9.29044 -36.69423 38091 ft 455 kts 219°
2026-05-09 01:22 -9.34130 -36.73221 38088 ft 455 kts 219°
2026-05-09 01:22 -9.39275 -36.77066 38080 ft 455 kts 219°
2026-05-09 01:23 -9.44382 -36.80882 38068 ft 455 kts 219°
2026-05-09 01:23 -9.49487 -36.84696 38062 ft 454 kts 219°
2026-05-09 01:24 -9.54604 -36.88520 38058 ft 455 kts 219°
2026-05-09 01:24 -9.59703 -36.92333 38055 ft 454 kts 219°
2026-05-09 01:25 -9.64793 -36.96140 38058 ft 454 kts 219°
2026-05-09 01:25 -9.69908 -36.99968 38053 ft 455 kts 219°
2026-05-09 01:26 -9.75009 -37.03804 38051 ft 455 kts 220°
2026-05-09 01:26 -9.80013 -37.07687 38047 ft 454 kts 220°
2026-05-09 01:27 -9.85037 -37.11626 38046 ft 455 kts 220°
2026-05-09 01:27 -9.90069 -37.15557 38043 ft 455 kts 220°
2026-05-09 01:28 -9.95151 -37.19402 38042 ft 455 kts 219°
2026-05-09 01:28 -9.98815 -37.22136 38040 ft 455 kts 219°
2026-05-09 01:29 -10.03916 -37.25939 38039 ft 453 kts 219°
2026-05-09 01:29 -10.09044 -37.29771 38033 ft 454 kts 219°
2026-05-09 01:30 -10.14238 -37.33662 38032 ft 455 kts 219°
2026-05-09 01:30 -10.19354 -37.37499 38035 ft 454 kts 219°
2026-05-09 01:31 -10.24478 -37.41345 38038 ft 452 kts 219°
2026-05-09 01:31 -10.29558 -37.45160 38040 ft 452 kts 219°
2026-05-09 01:32 -10.34639 -37.48981 38045 ft 452 kts 219°
2026-05-09 01:32 -10.39733 -37.52813 38048 ft 452 kts 219°
2026-05-09 01:33 -10.44841 -37.56652 38050 ft 452 kts 219°
2026-05-09 01:33 -10.49888 -37.60447 38053 ft 451 kts 219°
2026-05-09 01:34 -10.54951 -37.64264 38053 ft 451 kts 219°
2026-05-09 01:34 -10.60012 -37.68094 38052 ft 450 kts 219°
2026-05-09 01:35 -10.65058 -37.71916 38054 ft 450 kts 219°
2026-05-09 01:35 -10.68943 -37.74859 38055 ft 449 kts 219°
2026-05-09 01:36 -10.73993 -37.78683 38059 ft 450 kts 219°
2026-05-09 01:36 -10.79063 -37.82525 38061 ft 448 kts 219°
2026-05-09 01:37 -10.84084 -37.86331 38061 ft 449 kts 219°
2026-05-09 01:37 -10.89113 -37.90142 38059 ft 449 kts 219°
2026-05-09 01:38 -10.94136 -37.93950 38057 ft 445 kts 219°
2026-05-09 01:38 -10.99101 -37.97716 37674 ft 440 kts 219°
2026-05-09 01:39 -11.01556 -37.99577 37373 ft 433 kts 219°
2026-05-09 01:39 -11.03956 -38.01399 37080 ft 431 kts 219°
2026-05-09 01:39 -11.06365 -38.03231 36790 ft 436 kts 219°
2026-05-09 01:39 -11.08841 -38.05115 36402 ft 440 kts 219°
2026-05-09 01:40 -11.11295 -38.06981 35826 ft 438 kts 219°
2026-05-09 01:40 -11.13734 -38.08835 35128 ft 437 kts 219°
2026-05-09 01:40 -11.16202 -38.10710 34386 ft 437 kts 219°
2026-05-09 01:40 -11.18617 -38.12546 33641 ft 438 kts 219°
2026-05-09 01:41 -11.21053 -38.14398 32863 ft 438 kts 219°
2026-05-09 01:41 -11.23528 -38.16280 32129 ft 439 kts 218°
2026-05-09 01:41 -11.25941 -38.18116 31696 ft 437 kts 218°
2026-05-09 01:41 -11.28419 -38.20001 31191 ft 447 kts 218°
2026-05-09 01:42 -11.30925 -38.21910 30642 ft 449 kts 217°
2026-05-09 01:42 -11.33427 -38.23814 30085 ft 445 kts 217°
2026-05-09 01:42 -11.35909 -38.25703 29537 ft 440 kts 217°
2026-05-09 01:42 -11.38327 -38.27544 28999 ft 436 kts 216°
2026-05-09 01:43 -11.40756 -38.29394 28467 ft 431 kts 216°
2026-05-09 01:43 -11.43169 -38.31232 27938 ft 427 kts 216°
2026-05-09 01:43 -11.45534 -38.33034 27405 ft 424 kts 216°
2026-05-09 01:43 -11.47892 -38.34831 26875 ft 420 kts 216°
2026-05-09 01:44 -11.50196 -38.36589 26349 ft 417 kts 216°
2026-05-09 01:44 -11.52513 -38.38362 25814 ft 414 kts 216°
2026-05-09 01:44 -11.54809 -38.40122 25287 ft 411 kts 216°
2026-05-09 01:44 -11.57086 -38.41869 24763 ft 408 kts 216°
2026-05-09 01:45 -11.59349 -38.43607 24240 ft 405 kts 216°
2026-05-09 01:45 -11.61603 -38.45336 23720 ft 402 kts 216°
2026-05-09 01:45 -11.63822 -38.47039 23211 ft 399 kts 216°
2026-05-09 01:45 -11.66029 -38.48718 22704 ft 397 kts 214°
2026-05-09 01:46 -11.68341 -38.50279 22190 ft 394 kts 208°
2026-05-09 01:46 -11.70849 -38.51392 21687 ft 389 kts 195°
2026-05-09 01:46 -11.73506 -38.51945 21171 ft 386 kts 186°
2026-05-09 01:46 -11.76183 -38.52216 20659 ft 384 kts 183°
2026-05-09 01:47 -11.78873 -38.52393 20146 ft 382 kts 182°
2026-05-09 01:47 -11.81580 -38.52539 19640 ft 380 kts 182°
2026-05-09 01:47 -11.84244 -38.52682 19144 ft 379 kts 182°
2026-05-09 01:47 -11.86872 -38.52829 18665 ft 376 kts 183°
2026-05-09 01:48 -11.89501 -38.52983 18195 ft 374 kts 183°
2026-05-09 01:48 -11.92088 -38.53140 17733 ft 372 kts 183°
2026-05-09 01:48 -11.94690 -38.53304 17279 ft 375 kts 183°
2026-05-09 01:48 -11.97315 -38.53473 16817 ft 375 kts 183°
2026-05-09 01:49 -11.99950 -38.53645 16351 ft 372 kts 183°
2026-05-09 01:49 -12.02531 -38.53815 15889 ft 370 kts 182°
2026-05-09 01:49 -12.05087 -38.53983 15439 ft 367 kts 182°
2026-05-09 01:49 -12.07636 -38.54150 14988 ft 365 kts 182°
2026-05-09 01:50 -12.10162 -38.54317 14524 ft 362 kts 182°
2026-05-09 01:50 -12.12677 -38.54482 14078 ft 359 kts 181°
2026-05-09 01:50 -12.15182 -38.54646 13631 ft 356 kts 181°
2026-05-09 01:50 -12.17663 -38.54809 13194 ft 354 kts 181°
2026-05-09 01:51 -12.20120 -38.54971 13042 ft 348 kts 181°
2026-05-09 01:51 -12.22581 -38.55132 13043 ft 354 kts 181°
2026-05-09 01:51 -12.25046 -38.55291 13043 ft 355 kts 181°
2026-05-09 01:51 -12.27534 -38.55454 12945 ft 354 kts 181°
2026-05-09 01:52 -12.29993 -38.55616 12573 ft 349 kts 181°
2026-05-09 01:52 -12.32418 -38.55776 12163 ft 346 kts 181°
2026-05-09 01:52 -12.34860 -38.55936 11727 ft 344 kts 181°
2026-05-09 01:52 -12.37243 -38.56094 11307 ft 341 kts 181°
2026-05-09 01:53 -12.39648 -38.56252 10873 ft 339 kts 180°
2026-05-09 01:53 -12.41993 -38.56406 10490 ft 335 kts 180°
2026-05-09 01:53 -12.44290 -38.56559 10261 ft 326 kts 180°
2026-05-09 01:53 -12.46532 -38.56708 10152 ft 314 kts 180°
2026-05-09 01:54 -12.48697 -38.56852 9867 ft 309 kts 180°
2026-05-09 01:54 -12.50864 -38.56992 9483 ft 307 kts 180°
2026-05-09 01:54 -12.52991 -38.57130 9142 ft 305 kts 180°
2026-05-09 01:54 -12.55122 -38.57268 8801 ft 303 kts 180°
2026-05-09 01:55 -12.57215 -38.57405 8471 ft 301 kts 180°
2026-05-09 01:55 -12.59303 -38.57542 8117 ft 299 kts 180°
2026-05-09 01:55 -12.61395 -38.57680 7790 ft 295 kts 180°
2026-05-09 01:55 -12.63444 -38.57815 7449 ft 293 kts 180°
2026-05-09 01:56 -12.65464 -38.57948 7121 ft 291 kts 180°
2026-05-09 01:56 -12.67482 -38.58081 6804 ft 288 kts 180°
2026-05-09 01:56 -12.69499 -38.58214 6474 ft 286 kts 179°
2026-05-09 01:56 -12.71492 -38.58343 6143 ft 283 kts 179°
2026-05-09 01:57 -12.73428 -38.58290 5831 ft 276 kts 166°
2026-05-09 01:57 -12.75217 -38.57665 5514 ft 268 kts 149°
2026-05-09 01:57 -12.76842 -38.56732 5183 ft 265 kts 146°
2026-05-09 01:57 -12.78440 -38.55772 4947 ft 259 kts 146°
2026-05-09 01:58 -12.79999 -38.54884 4841 ft 248 kts 147°
2026-05-09 01:58 -12.81516 -38.54057 4775 ft 237 kts 148°
2026-05-09 01:58 -12.82946 -38.53289 4699 ft 233 kts 148°
2026-05-09 01:58 -12.84392 -38.52531 4602 ft 229 kts 151°
2026-05-09 01:59 -12.85895 -38.52021 4397 ft 228 kts 163°
2026-05-09 01:59 -12.87481 -38.51720 4144 ft 228 kts 166°
2026-05-09 01:59 -12.89041 -38.51453 3897 ft 225 kts 165°
2026-05-09 01:59 -12.90574 -38.51158 3673 ft 222 kts 165°
2026-05-09 02:00 -12.92057 -38.50818 3530 ft 212 kts 159°
2026-05-09 02:00 -12.93307 -38.50144 3345 ft 198 kts 131°
2026-05-09 02:00 -12.93920 -38.48952 3113 ft 188 kts 99°
2026-05-09 02:00 -12.93941 -38.47615 2794 ft 188 kts 81°
2026-05-09 02:01 -12.93570 -38.46323 2525 ft 187 kts 73°
2026-05-09 02:01 -12.93355 -38.45038 2226 ft 179 kts 86°
2026-05-09 02:01 -12.93212 -38.43831 2038 ft 164 kts 80°
2026-05-09 02:01 -12.92967 -38.42714 1789 ft 156 kts 78°
2026-05-09 02:02 -12.92741 -38.41658 1618 ft 146 kts 80°
2026-05-09 02:02 -12.92549 -38.40619 1406 ft 148 kts 79°
2026-05-09 02:02 -12.92335 -38.39586 1216 ft 149 kts 79°
2026-05-09 02:02 -12.92123 -38.38550 1024 ft 148 kts 80°
2026-05-09 02:03 -12.91923 -38.37516 830 ft 149 kts 79°
2026-05-09 02:03 -12.91701 -38.36463 634 ft 150 kts 79°
2026-05-09 02:03 -12.91496 -38.35415 452 ft 150 kts 80°
2026-05-09 02:03 -12.91285 -38.34367 252 ft 152 kts 79°
2026-05-09 02:04 -12.91069 -38.33296 60 ft 153 kts 79°
2026-05-09 02:04 -12.90874 -38.32325 45 ft 108 kts 79°
2026-05-09 02:04 -12.90776 -38.31838 53 ft 35 kts 78°
2026-05-09 02:04 -12.90815 -38.31722 54 ft 10 kts 155°
2026-05-09 02:05 -12.90843 -38.31714 54 ft 2 kts 167°
2026-05-09 02:05 -12.90874 -38.31708 54 ft 6 kts 176°
2026-05-09 02:05 -12.90918 -38.31739 53 ft 10 kts 250°
2026-05-09 02:05 -12.90934 -38.31830 52 ft 15 kts 258°
2026-05-09 02:06 -12.90957 -38.31949 50 ft 17 kts 258°
2026-05-09 02:06 -12.90982 -38.32070 48 ft 17 kts 258°
2026-05-09 02:06 -12.91004 -38.32183 46 ft 14 kts 258°
2026-05-09 02:07 -12.91051 -38.32415 43 ft 18 kts 258°
2026-05-09 02:07 -12.91078 -38.32550 41 ft 19 kts 258°
2026-05-09 02:07 -12.91102 -38.32670 41 ft 16 kts 258°
2026-05-09 02:07 -12.91126 -38.32787 40 ft 15 kts 258°
2026-05-09 02:08 -12.91147 -38.32892 40 ft 16 kts 258°
2026-05-09 02:08 -12.91172 -38.33018 40 ft 19 kts 258°
2026-05-09 02:08 -12.91198 -38.33111 41 ft 10 kts 224°
2026-05-09 02:08 -12.91272 -38.33112 41 ft 12 kts 167°
2026-05-09 02:09 -12.91371 -38.33092 41 ft 15 kts 168°
2026-05-09 02:09 -12.91483 -38.33091 42 ft 15 kts 200°
2026-05-09 02:09 -12.91582 -38.33127 43 ft 12 kts 185°
2026-05-09 02:09 -12.91673 -38.33125 43 ft 14 kts 196°
2026-05-09 02:10 -12.91770 -38.33163 45 ft 14 kts 204°
2026-05-09 02:10 -12.91813 -38.33236 46 ft 7 kts 261°
2026-05-09 02:10 -12.91810 -38.33260 46 ft 3 kts 314°
2026-05-09 02:10 -12.91785 -38.33270 46 ft 3 kts 347°
2026-05-09 02:11 -12.91775 -38.33272 46 ft 0 kts 347°